Location: Carri�res
(48.9069°N, 2.1792°E)
Time: 13:39:37
(UTC+00:00)

USA 267 - Pass Details

Date: 17 January 2021
Orbit: 1102 x 1106 km, 123.0° (Epoch: 22 February)

Event Time Altitude Azimuth Distance (km) Brightness Sun altitude
Exits shadow 20:17:15 48° 248° (WSW) 1,405 3.9 -37.5°
Drops below altitude 10° 20:21:46 10° 243° (WSW) 2,959 6.0 -38.2°
Sets 20:24:15 0° 243° (WSW) 3,915 6.7 -38.6°
